Miscellaneous Local Product
Issued by NWS Hastings, NE

Home | Current Version | Previous Version | Text Only | Print | Product List | Glossary Off
Versions: 1 2 3 4 5 6 7 8 9 10 11 12 13 14 15 16 17 18 19 20 21 22 23 24 25 26 27 28 29 30 31 32 33 34 35 36 37 38 39 40 41 42 43 44 45 46 47 48 49 50

868
AXUS43 KGID 060202
MISGRI

GID CWA HOURLY WEATHER ROUNDUP
NATIONAL WEATHER SERVICE HASTINGS NE
800 PM CST MON DEC 05 2016

NOTE: "FAIR" INDICATES FEW OR NO CLOUDS BELOW 12,000 FEET WITH NO
SIGNIFICANT WEATHER AND/OR OBSTRUCTIONS TO VISIBILITY.

...SOUTH CENTRAL NEBRASKA...

CITY           SKY/WX    TMP DP  RH WIND       PRES   REMARKS
GRAND ISLAND   CLOUDY    34  26  72 NW21G33   29.81R WCI  22
HASTINGS       CLOUDY    39  31  72 N26G32    29.79R WCI  28
KEARNEY        CLOUDY    34  21  60 N18G28    29.83R WCI  23
ORD            CLOUDY    30  17  58 NW25G32   29.85R WCI  16
YORK           CLOUDY    39  32  75 N18G26    29.76R WCI  30
AURORA         CLOUDY    36  28  74 N24G38    29.79R WCI  24
LEXINGTON      CLOUDY    31  19  59 N21G31    29.85R WCI  19
HOLDREGE       CLOUDY    33  25  70 N21G28    29.83R WCI  21
HEBRON         CLOUDY    39  34  81 CALM      29.71R

...NEBRASKA PANHANDLE...

CITY           SKY/WX    TMP DP  RH WIND       PRES   REMARKS
CHADRON        CLOUDY    19  10  68 VRB6      29.93R WCI  11
ALLIANCE       CLEAR     20  10  65 NW22G30   29.85R WCI   3
SCOTTSBLUFF    CLEAR     18   9  68 NW9       29.92R WCI   7
SIDNEY         CLOUDY    23   9  55 N12G21    29.90R WCI  12

...WESTERN AND NORTH CENTRAL NEBRASKA...

CITY           SKY/WX    TMP DP  RH WIND       PRES   REMARKS
VALENTINE      PTCLDY    23  13  65 NW16G25   29.85R WCI  10
AINSWORTH      CLOUDY    25  18  74 NW21G26   29.85R WCI  10
ONEILL         MOCLDY    28  19  70 NW20G26   29.85R WCI  15
BROKEN BOW     CLOUDY    29  19  66 N17G30    29.85R WCI  17
IMPERIAL       CLOUDY    29  18  63 N20G26    29.89R WCI  16
NORTH PLATTE   CLOUDY    28  16  60 N15       29.88R WCI  16
MCCOOK         CLOUDY    33  20  58 N23G31    29.85R WCI  21

...EASTERN NEBRASKA...

CITY           SKY/WX    TMP DP  RH WIND       PRES   REMARKS
NORFOLK        CLOUDY    32  23  69 NW21G28   29.78R WCI  20
SO SIOUX CITY  CLOUDY    38  30  73 NW17G28   29.76R WCI  28
TEKAMAH        CLOUDY    41  33  73 NW16      29.76R
COLUMBUS       CLOUDY    36  25  64 NW21G29   29.78R WCI  24
ALBION         CLOUDY    32  24  71 NW23G31   29.81R WCI  19
OMAHA EPPLEY   LGT RAIN  45  37  73 S8        29.72S
OFFUTT AFB     CLOUDY    40  39  99 S3        29.72R
MILLARD        LGT RAIN  43  36  75 SE5       29.73R
LINCOLN        CLOUDY    42  37  82 N6        29.74R
NEBRASKA CITY  PTCLDY    39  33  78 S6        29.72S WCI  35
BEATRICE       CLOUDY    41  33  75 CALM      29.71R
FALLS CITY     CLEAR     38  34  85 SE7       29.73R WCI  33

...NORTHERN KANSAS...

CITY           SKY/WX    TMP DP  RH WIND       PRES   REMARKS
GOODLAND       PTCLDY    30  15  53 N15       29.84R WCI  19
HILL CITY      MOCLDY    45  23  42 N16G23    29.76R
NORTON         CLOUDY    37  23  56 N28G37    29.79R WCI  25
PHILLIPSBURG   CLOUDY    46  32  57 N26G38    29.76R
SMITH CENTER   CLOUDY    43  32  65 N20G25    29.75R
BELOIT         PTCLDY    34  30  86 CALM      29.70R
HAYS           MOCLDY    36  30  79 NW8       29.72R WCI  30
RUSSELL        CLEAR     40  33  76 NW5       29.69R
CONCORDIA      CLEAR     41  34  76 SW10      29.69R
SALINA         CLEAR     39  33  79 S7        29.69R WCI  34
TOPEKA         CLEAR     41  34  76 S3        29.73R



USA.gov is the U.S. government's official web portal to all federal, state and local government web resources and services.